C/2021 L3 ( Borisov )

Japanese version
Home page
Updated on September 18, 2021

---------------------------------------------------------------------

* Profile

Discovery Date June 8, 2021
Magnitude 20.2 mag
Discoverer Gennady Borisov (MARGO observatory near Nauchnij, Crimea)

* Pictures

* Orbital Elements

Epoch 2022 Mar. 2.0 TT = JDT 2459640.5
T 2022 Feb. 12.24820 TT                                 Rudenko
q   8.4598976            (2000.0)            P               Q
z  -0.0003339      Peri.   91.51583     +0.02577472     -0.96681800
 +/-0.0000630      Node   344.97169     -0.20808361     +0.24348932
e   1.0028245      Incl.   78.57986     +0.97777138     +0.07730396
From 123 observations 2021 June 8-Aug. 27, mean residual 0".6.

* Magnitudes Graph

        m1 = 5.5 + 5 log d + 10.0 log r

---------------------------------------------------------------------

The orbital elements are published on M.P.E.C. 2021-R75.
The magnitudes graphs are made with Comet for Windows.

---------------------------------------------------------------------

Copyright(C) Seiichi Yoshida (comet@aerith.net). All rights reserved.